Location: Iowa City
(41.6610°N, 91.5300°W)
Time: 23:22:01
(UTC-05:00)

ISS - Visible Passes

Search period start: 07 July 2015 00:00
Search period end: 17 July 2015 00:00
Orbit: 398 x 402 km, 51.6° (Epoch: 07 July)

Date Brightness Start Highest point End Pass type
(mag) Time Alt. Az. Time Alt. Az. Time Alt. Az.
12 Jul -0.8 04:27:57 10° SSE 04:29:28 13° SE 04:31:04 10° ESE visible
14 Jul -1.9 04:16:37 19° S 04:18:09 28° SE 04:21:01 10° ENE visible
15 Jul -1.0 03:24:57 14° ESE 03:24:57 14° ESE 03:26:30 10° E visible
15 Jul -3.1 04:57:30 11° WSW 05:00:38 64° NNW 05:03:52 10° NE visible
16 Jul -3.3 04:05:45 37° SSW 04:06:50 66° SE 04:10:04 10° ENE visible
